Notices

What's New in latest Release from April 7th, 2021:

- Updated Glossary, including Speed of Maximum Gust, and Total Hourly Precipitation

- Updated national and regional climate services offices contacts and prices information

- Addition of station inventory lists for 1981-2010, 1971-2000, and 1961-1990 Normals.

If you haven't already, please take our survey and provide feedback about our website: https://eccc.sondage-survey.ca/f/LanguageSelection.aspx?s=442ca660-fcf1-47c0-95a9-59707d6fd709

Hourly Data Report for April 03, 2019

MIRAMICHI RCS
NEW BRUNSWICK
Current Station Operator: ECCC - MSC

47°00'34.000" N
65°27'54.000" W
33.00 m
8100989
71744
ACQ

Download Data

Hourly Data (April 2019)
Hourly Data Report for April 3, 2019
TIME
LST
Temp Definition
°C
Dew Point Definition
°C
Rel Hum Definition
%
Precip. Amount Definition
mm

Wind Dir Definition
10's deg

Wind Spd Definition
km/h
Visibility Definition
km
Stn Press Definition
kPa
Hmdx Definition


Wind Chill Definition


Weather Definition


00:00 1.6 -3.2 71 0.0 21 23   102.36     LegendNANA
01:00 1.3 -2.9 74 0.0 21 26   102.31     LegendNANA
02:00 0.7 -2.5 79 0.0 21 16   102.27     LegendNANA
03:00 0.2 -2.4 83 0.0 18 10   102.15     LegendNANA
04:00 -0.3 -3.0 82 0.0 17 9   102.17   -3 LegendNANA
05:00 -0.7 -3.6 81 0.0 14 5   102.12   -2 LegendNANA
06:00 -1.3 -3.7 84 0.0 11 8   102.03   -4 LegendNANA
07:00 -1.2 -3.9 82 0.0 10 10   101.90   -5 LegendNANA
08:00 -0.4 -4.4 74 0.0 12 14   101.86   -5 LegendNANA
09:00 0.1 -3.4 77 0.0 8 12   101.71     LegendNANA
10:00 0.6 -3.8 73 0.0 8 15   101.50     LegendNANA
11:00 -0.4 -1.7 91 0.3 7 17   101.27   -5 LegendNANA
12:00 -0.9 -1.7 94 0.9 4 17   100.94   -6 LegendNANA
13:00 -0.7 -1.4 95 2.0 5 19   100.54   -6 LegendNANA
14:00 -0.2 -0.7 97 3.7 5 34   100.06   -7 LegendNANA
15:00 -0.5 -1.1 96 1.6 5 31   99.78   -7 LegendNANA
16:00 0.0 -0.5 96 1.2 5 31   99.53   -7 LegendNANA
17:00 -0.5 -1.1 96 0.9 5 22   99.28   -6 LegendNANA
18:00 -0.7 -1.5 94 0.3 3 16   99.09   -5 LegendNANA
19:00 -0.7 -1.4 96 0.2 32 11   99.06   -4 LegendNANA
20:00 -1.5 -2.5 93 0.0 30 20   99.11   -7 LegendNANA
21:00 -1.4 -2.7 91 0.0 29 20   99.13   -7 LegendNANA
22:00 -1.5 -2.7 92 0.0 26 17   99.14   -7 LegendNANA
23:00 -1.5 -2.8 91 0.0 25 25   99.14   -8 LegendNANA

Notes on Data Quality.

Legend

  • E = Estimated
  • M = Missing
  • NA = Not Available*
  • [empty] = Indicates an unobserved value
Date modified: